Regional Weather Roundup
Issued by NWS

Home | Current Version | Previous Version | Text Only | Print | Product List | Glossary Off
Versions: 1 2 3 4 5 6 7 8 9 10 11 12 13 14 15 16 17 18 19 20 21 22 23 24 25 26 27 28 29 30 31 32 33 34 35 36 37 38 39 40 41 42 43 44 45 46 47 48 49 50

000
ASUS43 KLSX 102107
RWRMO

WEATHER SUMMARY FOR MISSOURI
NATIONAL WEATHER SERVICE SPRINGFIELD MO
300 PM CST SUN DEC 10 2017

NOTE: "FAIR" INDICATES FEW OR NO CLOUDS BELOW 12,000 FEET WITH NO
       SIGNIFICANT WEATHER AND/OR OBSTRUCTIONS TO VISIBILITY.
       CURRENT SKY AND/OR WEATHER CONDITIONS ARE NOT AVAILABLE FOR
       CHILLICOTHE AND FARMINGTON.

MOZ001>031-035>038-043-044-053-054-102200-
...NORTHERN AND WESTERN MISSOURI...

CITY           SKY/WX    TMP DP  RH WIND       PRES   REMARKS
KANSAS CTY INT MOSUNNY   56  24  29 W14G21    30.10S
KANSAS C DTWN  SUNNY     57  25  29 W13G20    30.10R
LEE`S SUMMIT   SUNNY     56  26  31 NW14      30.10R
ST JOSEPH      SUNNY     55  26  32 NW10      30.11S
CHILLICOTHE      N/A     54  25  32 NW10G17   30.08R
KIRKSVILLE     SUNNY     50  26  39 NW14G21   30.04R

$$
MOZ066>068-077>081-088>096-101>105-102200-
...SOUTHWEST MISSOURI...

CITY           SKY/WX    TMP DP  RH WIND       PRES   REMARKS
SPRINGFIELD    SUNNY     55  25  31 W12G23    30.12S
JOPLIN         SUNNY     58  25  28 W9        30.16S
BRANSON        SUNNY     57  21  24 NW12G17   30.13S

$$
MOZ032>034-039>042-045>050-055>058-069>072-102200-
...CENTRAL MISSOURI...

CITY           SKY/WX    TMP DP  RH WIND       PRES   REMARKS
COLUMBIA       SUNNY     53  25  33 W15G24    30.05R
JEFFERSON CITY SUNNY     54  25  32 W13       30.06R
ROLLA          SUNNY     53  25  33 W15       30.06R
SEDALIA        SUNNY     55  27  34 W9        30.09S
WHITEMAN AFB   MOSUNNY   55  24  30 W9        30.04F
WARRENSBURG    SUNNY     55  25  30 W9        30.09S
OSAGE BEACH    SUNNY     54  26  34 W8        30.09R

$$
MOZ051-052-059>065-102200-
...EAST CENTRAL MISSOURI...

CITY           SKY/WX    TMP DP  RH WIND       PRES   REMARKS
ST LOUIS INTL  MOSUNNY   52  25  35 W14G24    30.01R
SPIRIT OF STL  MOSUNNY   53  25  33 W14       30.01R
ST CHARLES     SUNNY     51  25  36 NW15      30.00R

$$
MOZ072>076-082>087-097>100-106>115-102200-
...SOUTH CENTRAL AND SOUTHEAST MISSOURI...

CITY           SKY/WX    TMP DP  RH WIND       PRES   REMARKS
CAPE GIRARDEAU SUNNY     49  29  46 SW15      30.05S
FARMINGTON     SUNNY     56  25  30 W9        30.02R
POPLAR BLUFF   SUNNY     53  31  42 SW15      30.06F
WEST PLAINS    SUNNY     59  22  24 W10       30.08S

$$



USA.gov is the U.S. government's official web portal to all federal, state and local government web resources and services.